This is the latest recevied weather packets stored in our database for station/object W4ZHA. If no packets are shown the sender has not sent any weather packets the latest 10 day(s).
| Time | Temp. | Humidity | Pressure | Rain* | Wind** | Luminosity | Snow |
|---|---|---|---|---|---|---|---|
| 1788099972 | 26.11° C | 65% | 1023.1 hPa | 0 mm | - | 128 W/m² | - |
| 1788099667 | 27.22° C | 64% | 1023.1 hPa | 0 mm | - | 136 W/m² | - |
| 1788099362 | 26.67° C | 65% | 1023.5 hPa | 0 mm | - | 130 W/m² | - |
| 1788099057 | 26.11° C | 65% | 1023.1 hPa | 0 mm | - | 124 W/m² | - |
| 1788098751 | 26.11° C | 66% | 1023.1 hPa | 0 mm | - | 80 W/m² | - |
| 1788098447 | 26.11° C | 65% | 1023.1 hPa | 0 mm | - | 81 W/m² | - |
| 1788098142 | 26.11° C | 65% | 1023.1 hPa | 0 mm | - | 99 W/m² | - |
| 1788097837 | 26.11° C | 65% | 1023.1 hPa | 0 mm | - | 98 W/m² | - |
| 1788097533 | 26.11° C | 66% | 1023.1 hPa | 0 mm | - | 83 W/m² | - |
| 1788097228 | 26.11° C | 66% | 1023.1 hPa | 0 mm | - | 64 W/m² | - |
| 1788096923 | 26.11° C | 66% | 1023.1 hPa | 0 mm | - | 53 W/m² | - |
| 1788096618 | 25° C | 66% | 1023.1 hPa | 0 mm | - | 53 W/m² | - |
| 1788096315 | 26.11° C | 66% | 1022.8 hPa | 0 mm | - | 54 W/m² | - |
| 1788096015 | 25.56° C | 67% | 1023.1 hPa | 0 mm | - | 88 W/m² | - |
| 1788095713 | 25° C | 67% | 1023.1 hPa | 0 mm | - | 55 W/m² | - |
| 1788095408 | 25° C | 67% | 1022.8 hPa | 0 mm | - | 45 W/m² | - |
| 1788095104 | 25° C | 67% | 1022.8 hPa | 0 mm | - | 39 W/m² | - |
| 1788094803 | 25° C | 67% | 1022.8 hPa | 0 mm | - | 39 W/m² | - |
| 1788094498 | 25° C | 68% | 1022.4 hPa | 0 mm | - | 38 W/m² | - |
| 1788094196 | 25° C | 69% | 1022.4 hPa | 0 mm | - | 39 W/m² | - |
| 1788093891 | 24.44° C | 71% | 1022.8 hPa | 0 mm | - | 52 W/m² | - |
| 1788093587 | 23.89° C | 74% | 1022.4 hPa | 0 mm | - | 47 W/m² | - |
| 1788093284 | 23.89° C | 82% | 1022.8 hPa | 0 mm | - | 42 W/m² | - |
| 1788092982 | 23.89° C | 90% | 1022.4 hPa | 0 mm | - | 46 W/m² | - |
| 1788092681 | 23.89° C | 91% | 1022.4 hPa | 0 mm | - | 40 W/m² | - |
* Rain latest hour (hover to see other rain measurements)
** Current wind speed in m/s (hover to see current wind gust speed)